Weather History for KJKJ - August, 2013

Change the Weather History Date:

Tuesday, August 6, 2013

  Actual Average (KFAR) Record (KFAR)
Temperature  
Mean Temperature 65 °F 71 °F  
Max Temperature 75 °F 83 °F 100 °F (1941)
Min Temperature 55 °F 59 °F 42 °F (1989)
Degree Days  
Heating Degree Days 0 1  
Month to date heating degree days 2  
Since 1 June heating degree days 91  
Since 1 July heating degree days 18  
Cooling Degree Days 0 7  
Month to date cooling degree days 42  
Year to date cooling degree days 382  
Since 1 June cooling degree days 351  
Growing Degree Days 15 (Base 50)    
Moisture  
Dew Point 62 °F    
Average Humidity 95    
Maximum Humidity 100    
Minimum Humidity 69    
Precipitation  
Precipitation 0.74 in 0.07 in 0.97 in (2011)
Month to date precipitation 0.42  
Year to date precipitation 13.92  
Snow  
Snow 0.00 in 0.00 in 0.00 in ()
Month to date snowfall 0.0  
Since 1 June snowfall 0.0  
Since 1 July snowfall 0.0  
Snow Depth -    
Sea Level Pressure  
Sea Level Pressure 29.78 in    
Wind  
Wind Speed 7 mph (ESE)    
Max Wind Speed 14 mph    
Max Gust Speed 34 mph    
Visibility 10 miles    
Events Rain , Thunderstorm    
T = Trace of Precipitation, MM = Missing Value Source: NWS Daily Summary

Daily Weather History Graph

Daily Weather History Graph

Search for Another Location

Airport or City:

Trip Planner

Search our weather history database for the weather conditions in past years. The results will help you decide how hot, cold, wet, or windy it might be!

Date:

Astronomy

Aug. 06, 2013 Rise Set
Actual Time 6:13 AM CDT 8:51 PM CDT
Civil Twilight 5:38 AM CDT 9:25 PM CDT
Nautical Twilight 4:54 AM CDT 10:08 PM CDT
Astronomical Twilight 4:04 AM CDT 10:59 PM CDT
Moon 6:09 AM CDT (8/6) 8:20 PM CDT (8/6)
Length of Visible Light 15h 46m
Length of Day
14h 37m
Waning Crescent, 0% of the Moon is Illuminated
Aug 6
Waning Crescent
Aug 6
New
Aug 14
First Quarter
Aug 20
Full
Aug 28
Last Quarter

Hourly Weather History & Observations

Time (CDT) Temp. Dew Point Humidity Pressure Visibility Wind Dir Wind Speed Gust Speed Precip Events Conditions
12:14 AM 60.8 °F 59.0 °F 94% 29.85 in 10.0 mi South 5.8 mph - N/A   Clear
12:35 AM 59.0 °F 57.2 °F 94% 29.83 in 10.0 mi South 5.8 mph - N/A   Clear
12:54 AM 59.0 °F 57.2 °F 94% 29.82 in 10.0 mi South 8.1 mph - N/A   Clear
1:14 AM 59.0 °F 57.2 °F 94% 29.83 in 10.0 mi South 6.9 mph - N/A   Clear
1:35 AM 57.2 °F 57.2 °F 100% 29.81 in 10.0 mi South 8.1 mph - N/A   Clear
1:54 AM 57.2 °F 57.2 °F 100% 29.82 in 10.0 mi South 8.1 mph - N/A   Clear
2:14 AM 57.2 °F 57.2 °F 100% 29.82 in 10.0 mi South 4.6 mph - N/A   Clear
2:35 AM 57.2 °F 57.2 °F 100% 29.81 in 10.0 mi SSE 5.8 mph - N/A   Clear
2:54 AM 55.4 °F 55.4 °F 100% 29.80 in 10.0 mi South 6.9 mph - N/A   Clear
3:15 AM 57.2 °F 57.2 °F 100% 29.79 in 10.0 mi South 8.1 mph - N/A   Clear
3:35 AM 57.2 °F 57.2 °F 100% 29.78 in 10.0 mi SSE 5.8 mph - N/A   Clear
3:54 AM 55.4 °F 55.4 °F 100% 29.78 in 10.0 mi SSE 4.6 mph - N/A   Clear
4:15 AM 55.4 °F 55.4 °F 100% 29.76 in 10.0 mi SSE 5.8 mph - N/A   Clear
4:35 AM 55.4 °F 55.4 °F 100% 29.76 in 10.0 mi South 9.2 mph - N/A   Clear
4:54 AM 55.4 °F 55.4 °F 100% 29.76 in 10.0 mi South 5.8 mph - N/A   Clear
5:15 AM 55.4 °F 55.4 °F 100% 29.76 in 10.0 mi South 4.6 mph - N/A   Clear
5:34 AM 55.4 °F 55.4 °F 100% 29.75 in 10.0 mi South 8.1 mph - N/A   Clear
5:54 AM 57.2 °F 57.2 °F 100% 29.76 in 10.0 mi South 6.9 mph - N/A   Clear
6:15 AM 57.2 °F 57.2 °F 100% 29.76 in 10.0 mi South 6.9 mph - N/A   Clear
6:34 AM 57.2 °F 57.2 °F 100% 29.78 in 10.0 mi SW 6.9 mph - N/A   Light Drizzle
6:55 AM 57.2 °F 57.2 °F 100% 29.77 in 10.0 mi SSW 4.6 mph - N/A   Light Drizzle
7:14 AM 59.0 °F 59.0 °F 100% 29.76 in 10.0 mi ESE 4.6 mph - N/A Rain Light Rain
7:35 AM 59.0 °F 59.0 °F 100% 29.78 in 7.0 mi West 3.5 mph - N/A Rain , Thunderstorm Light Thunderstorms and Rain
7:55 AM 59.0 °F 59.0 °F 100% 29.80 in 7.0 mi SW 4.6 mph - 0.04 in Rain Rain
8:14 AM 59.0 °F 59.0 °F 100% 29.77 in 7.0 mi South 5.8 mph - 0.02 in Rain , Thunderstorm Thunderstorms and Rain
8:34 AM 60.8 °F 60.8 °F 100% 29.77 in 10.0 mi Calm Calm - 0.03 in Rain Light Rain
8:55 AM 60.8 °F 60.8 °F 100% 29.75 in 10.0 mi SSE 10.4 mph - 0.03 in   Overcast
9:14 AM 60.8 °F 60.8 °F 100% 29.75 in 10.0 mi SE 5.8 mph - N/A   Mostly Cloudy
9:35 AM 62.6 °F 62.6 °F 100% 29.73 in 10.0 mi SE 6.9 mph - N/A   Mostly Cloudy
9:55 AM 64.4 °F 64.4 °F 100% 29.73 in 10.0 mi SSE 9.2 mph - N/A   Scattered Clouds
10:14 AM 64.4 °F 64.4 °F 100% 29.73 in 10.0 mi SE 4.6 mph - N/A   Scattered Clouds
10:35 AM 68.0 °F 66.2 °F 94% 29.74 in 10.0 mi East 4.6 mph - N/A   Scattered Clouds
10:55 AM 71.6 °F 66.2 °F 83% 29.74 in 10.0 mi ESE 3.5 mph - N/A   Clear
11:14 AM 71.6 °F 64.4 °F 78% 29.73 in 10.0 mi South 3.5 mph - N/A   Clear
11:35 AM 71.6 °F 66.2 °F 83% 29.73 in 10.0 mi SE 5.8 mph - N/A   Clear
11:54 AM 73.4 °F 66.2 °F 78% 29.73 in 10.0 mi SSE 5.8 mph - N/A   Clear
12:14 PM 75.2 °F 66.2 °F 73% 29.73 in 10.0 mi Calm Calm - N/A   Clear
12:35 PM 75.2 °F 66.2 °F 73% 29.73 in 10.0 mi Calm Calm - N/A   Clear
12:54 PM 75.2 °F 66.2 °F 73% 29.73 in 10.0 mi SSW 4.6 mph - N/A   Scattered Clouds
1:14 PM 75.2 °F 64.4 °F 69% 29.73 in 10.0 mi Calm Calm - N/A   Scattered Clouds
1:35 PM 75.2 °F 64.4 °F 69% 29.73 in 10.0 mi Calm Calm - N/A   Mostly Cloudy
1:54 PM 75.2 °F 64.4 °F 69% 29.74 in 10.0 mi NE 5.8 mph - N/A   Overcast
2:15 PM 73.4 °F 66.2 °F 78% 29.73 in 10.0 mi NE 6.9 mph - N/A Rain Light Rain
2:35 PM 71.6 °F 68.0 °F 88% 29.74 in 10.0 mi NE 5.8 mph - N/A Rain Light Rain
2:54 PM 71.6 °F 69.8 °F 94% 29.74 in 10.0 mi NE 5.8 mph - N/A Rain Light Rain
3:15 PM 71.6 °F 68.0 °F 88% 29.74 in 10.0 mi NE 9.2 mph - N/A   Scattered Clouds
3:35 PM 68.0 °F 68.0 °F 100% 29.74 in 10.0 mi NE 8.1 mph - 0.09 in Rain Heavy Rain
3:54 PM 68.0 °F 68.0 °F 100% 29.74 in 10.0 mi East 5.8 mph - 0.09 in   Mostly Cloudy
4:15 PM 68.0 °F 68.0 °F 100% 29.74 in 10.0 mi NE 4.6 mph - N/A   Mostly Cloudy
4:34 PM 64.4 °F 62.6 °F 94% 29.75 in 0.5 mi ESE 11.5 mph 34.5 mph 0.41 in Rain , Thunderstorm Heavy Thunderstorms and Rain
4:55 PM 66.2 °F 66.2 °F 100% 29.76 in 10.0 mi ENE 4.6 mph - 0.42 in Rain Light Rain
5:15 PM 66.2 °F 66.2 °F 100% 29.76 in 10.0 mi ENE 3.5 mph - 0.03 in Rain Rain
5:34 PM 66.2 °F 66.2 °F 100% 29.78 in 10.0 mi North 11.5 mph 18.4 mph 0.07 in Rain Rain
5:55 PM 66.2 °F 66.2 °F 100% 29.81 in 10.0 mi NNW 10.4 mph 23.0 mph 0.09 in Rain Rain
6:15 PM 64.4 °F 64.4 °F 100% 29.75 in 10.0 mi ENE 11.5 mph - 0.03 in Rain , Thunderstorm Rain
6:34 PM 64.4 °F 64.4 °F 100% 29.78 in 10.0 mi North 9.2 mph - 0.07 in Rain Light Rain
6:55 PM 64.4 °F 64.4 °F 100% 29.79 in 10.0 mi North 8.1 mph - 0.07 in   Clear
7:15 PM 64.4 °F 64.4 °F 100% 29.79 in 10.0 mi North 11.5 mph - N/A   Clear
7:34 PM 66.2 °F 64.4 °F 94% 29.79 in 10.0 mi North 13.8 mph - N/A   Clear
7:55 PM 64.4 °F 64.4 °F 100% 29.80 in 10.0 mi North 12.7 mph 20.7 mph N/A   Scattered Clouds
8:15 PM 64.4 °F 64.4 °F 100% 29.81 in 10.0 mi North 11.5 mph 16.1 mph N/A   Clear
8:35 PM 62.6 °F 62.6 °F 100% 29.83 in 10.0 mi North 11.5 mph - N/A   Scattered Clouds
8:55 PM 62.6 °F 62.6 °F 100% 29.84 in 10.0 mi North 11.5 mph - N/A   Mostly Cloudy
9:14 PM 62.6 °F 62.6 °F 100% 29.86 in 10.0 mi North 11.5 mph - N/A   Overcast
9:35 PM 62.6 °F 62.6 °F 100% 29.87 in 10.0 mi North 11.5 mph - N/A   Overcast
9:55 PM 60.8 °F 60.8 °F 100% 29.87 in 10.0 mi North 9.2 mph - N/A   Overcast
10:14 PM 60.8 °F 60.8 °F 100% 29.88 in 10.0 mi North 8.1 mph - N/A   Mostly Cloudy
10:35 PM 60.8 °F 60.8 °F 100% 29.88 in 10.0 mi North 8.1 mph - N/A   Mostly Cloudy
10:55 PM 60.8 °F 60.8 °F 100% 29.89 in 10.0 mi NNW 6.9 mph - N/A   Overcast
11:14 PM 59.0 °F 59.0 °F 100% 29.90 in 10.0 mi NNW 5.8 mph - N/A   Mostly Cloudy
11:35 PM 57.2 °F 57.2 °F 100% 29.90 in 10.0 mi NNW 5.8 mph - N/A   Mostly Cloudy
11:55 PM 57.2 °F 57.2 °F 100% 29.90 in 10.0 mi North 4.6 mph - N/A   Clear